OpenBCM V2.0.3 (Linux)

Packet Radio Mailbox

IZ3LSV

[San Dona' di P. JN]

 Login: GUEST





  
LU9DCE > KEP      03.01.20 18:14l 240 Lines 11878 Bytes #999 (0) @ WW
BID : 6548_LU9DCE
Read: GUEST
Subj: TLE 03 01
Path: IZ3LSV<DB0ERF<OK0NAG<OK0NBR<IR2UBX<EA2RCF<LU9DCE
Sent: 200103/1600Z 6548@LU9DCE.TOR.BA.ARG.SOAM LinBPQ6.0.19

            __    _  _  ___  ____   ___  ____    ____  ____  ____
           (  )  / )( \/ _ \(    \ / __)(  __)  (  _ \(  _ \/ ___)
           / (_/\) \/ (\__  )) D (( (__  ) _)    ) _ ( ) _ (\___ \
           \____/\____/(___/(____/ \___)(____)  (____/(____/(____/
               ESTACION DE PACKET RADIO - BUENOS AIRES (GF05OM)
                   BOLETINES INFORMATIVOS PROGRAMADOS (BIP)
                      LINUX - HELLOCODELINUX@GMAIL.COM
+----------------------------------------------------------------------------+
OSCAR 7
1  7530U 74089B   20003.50333056 -.00000022  00000-0  14718-3 0  9992
2  7530 101.7759 334.3381 0012153 325.0896 148.2349 12.53641484 65434
OSCAR 11 (UoSAT 2)
1 14781U 84021B   20002.91945894 +.00000046 +00000-0 +11753-4 0  9990
2 14781 097.5983 023.1099 0009285 037.1345 323.0510 14.83132024907148
OSCAR 19 (LUSAT)
1 20442U 90005G   20002.90731831 +.00000010 +00000-0 +20224-4 0  9997
2 20442 098.6727 309.7812 0010721 287.4824 072.5187 14.32941839564705
EYESAT A
1 22825U 93061C   20003.48419233 -.00000016  00000-0  11941-4 0  9995
2 22825  98.9178   1.8061 0009110 135.2829 224.9089 14.30074761370366
ITAMSAT
1 22826U 93061D   20002.94984844 -.00000016  00000-0  11781-4 0  9993
2 22826  98.9117   1.2257 0009749 126.4176 233.7906 14.30409283370497
RADIO ROSTO
1 23439U 94085A   20002.91649789 -.00000052 +00000-0 -26239-3 0  9998
2 23439 064.8138 155.5673 0146043 074.3914 287.3074 11.27569357030247
JAS 2
1 24278U 96046B   20002.86901696 -.00000007 +00000-0 +26267-4 0  9992
2 24278 098.5645 134.6876 0351331 086.3567 277.7672 13.53095109154350
ISS (ZARYA)
1 25544U 98067A   20003.58779850  .00000298  00000-0  13401-4 0  9996
2 25544  51.6443  87.8851 0005197  99.3180  41.3920 15.49531766206345
PCSAT
1 26931U 01043C   20003.12592629 -.00000041  00000-0  16222-4 0  9993
2 26931  67.0494 211.6175 0006828 263.3989  96.6335 14.30563404953357
SAUDISAT 1C
1 27607U 02058C   20002.92055715 -.00000027 +00000-0 +16941-4 0  9990
2 27607 064.5538 163.5297 0067790 217.1632 142.4768 14.75599087916158
CUTE-1
1 27844U 03031E   20002.90917414 +.00000035 +00000-0 +35264-4 0  9993
2 27844 098.6835 013.1498 0009973 171.8015 188.3327 14.22213869856428
CUBESAT XI 4
1 27848U 03031J   20002.74688834  .00000021  00000-0  29259-4 0  9992
2 27848  98.6908  13.5273 0009638 183.9741 176.1362 14.21804061856283
MOZHAYETS 4
1 27939U 03042A   20003.48911415  .00000047  00000-0  16998-4 0  9995
2 27939  98.0660 140.7766 0013562 153.8320 206.3575 14.66828221869686
CUBESAT XI 5
1 28895U 05043F   20003.16601744  .00000103  00000-0  28643-4 0  9999
2 28895  97.9845 144.4428 0018083  86.1907 274.1363 14.63726104756518
CUTE-1.7+APD II
1 32785U 08021C   20003.21593141  .00000166  00000-0  23478-4 0  9998
2 32785  97.5605 358.6833 0012272 330.5993  29.4533 14.88397655633218
DELFI C3
1 32789U 08021G   20002.86654353 +.00001120 +00000-0 +77978-4 0  9990
2 32789 097.4412 051.3216 0012784 160.8167 199.3545 15.07362110636712
SEEDS
1 32791U 08021J   20003.50229194  .00000184  00000-0  23947-4 0  9992
2 32791  97.5331   5.0767 0011982 299.0319  60.9698 14.90944457633738
YUBELEINY
1 32953U 08025A   20003.43969046  .00000037  00000-0  19437-3 0  9990
2 32953  82.5037  21.1587 0020232  58.1791 302.1255 12.43093428527001
PRISM (HITOMI)
1 33493U 09002B   20002.81357742  .00000647  00000-0  61957-4 0  9993
2 33493  98.1314 296.3590 0013884 245.1913 114.7864 14.96856462594788
KKS-1 (KISEKI)
1 33499U 09002H   20002.83266876  .00000065  00000-0  17636-4 0  9997
2 33499  98.3323 212.7096 0008055 300.1709  59.8701 14.75492804588446
SWISSCUBE
1 35932U 09051B   20003.43411293  .00000094  00000-0  32247-4 0  9994
2 35932  98.5999 180.4471 0006547 276.8569  83.1883 14.56345195545708
BEESAT
1 35933U 09051C   20003.01321066  .00000063  00000-0  25202-4 0  9996
2 35933  98.6011 181.8453 0004803 294.9661  65.1037 14.56426657545756
ITUPSAT 1
1 35935U 09051E   20002.77328100  .00000046  00000-0  21871-4 0  9995
2 35935  98.6120 181.8183 0007108 292.4245  67.6198 14.55578787545454
XIWANG-1 (HOPE-1)
1 36122U 09072B   20002.72769488 -.00000042  00000-0 -24958-6 0  9999
2 36122 100.0809   0.8541 0006920 249.1037 110.9336 13.16352548482932
TISAT 1
1 36799U 10035E   20003.17184156  .00000154  00000-0  21645-4 0  9993
2 36799  98.1759 167.2336 0012938 150.3470 209.8483 14.91238859514347
JUGNU
1 37839U 11058B   20002.93156208 +.00000288 +00000-0 +11874-4 0  9996
2 37839 019.9594 212.6145 0018873 352.5573 036.4936 14.12668022425214
SRMSAT
1 37841U 11058D   20002.92107031 +.00000301 +00000-0 +19961-4 0  9999
2 37841 019.9718 273.5596 0011880 213.7078 222.6345 14.10647051424624
M-CUBED/EXP-1 PRIME
1 37855U 11061F   20002.89639839 +.00000641 +00000-0 +39900-4 0  9992
2 37855 101.7267 005.4049 0172088 209.0889 150.0653 15.05912376446135
HORYU 2
1 38340U 12025D   20003.10164031  .00000103  00000-0  23011-4 0  9994
2 38340  98.3055  52.3879 0011015 206.1462 153.9191 14.75794040410424
SOMP
1 39134U 13015E   20003.53683263  .00000878  00000-0  48645-4 0  9995
2 39134  64.8633  96.0063 0038126 271.1936  88.4824 15.20623418370821
BEESAT 3
1 39135U 13015F   20002.69704040  .00000823  00000-0  49600-4 0  9991
2 39135  64.8662 119.8431 0044236 273.0132  86.5932 15.17826226370293
CUBEBUG 1
1 39153U 13018D   20003.51940218  .00000147  00000-0  26162-4 0  9992
2 39153  97.9814 105.5799 0015568 274.1967  85.7465 14.80647129361230
ZACUBE
1 39417U 13066B   20002.98330485  .00000179  00000-0  28664-4 0  9991
2 39417  97.5613  10.3226 0060359 103.4954 257.2995 14.81200632330394
TRITON 1
1 39427U 13066M   20002.88827174 +.00000099 +00000-0 +24096-4 0  9993
2 39427 097.7028 333.3069 0112323 250.8352 108.0669 14.67925556327220
GOMX 1
1 39430U 13066Q   20003.46894212  .00000191  00000-0  43712-4 0  9998
2 39430  97.7732 312.1986 0151153 348.1202  11.6433 14.59333445325595
HUMSAT D
1 39433U 13066T   20003.09403010  .00000117  00000-0  16667-4 0  9999
2 39433  97.5296  47.2249 0030585   1.4166 358.7135 14.92341119332666
CUBEBUG 2
1 39440U 13066AA  20002.85415140 +.00000158 +00000-0 +28837-4 0  9994
2 39440 097.6156 354.7308 0080597 160.2872 200.1485 14.75937705328002
FUNCUBE 1
1 39444U 13066AE  20003.14341255  .00000231  00000-0  34539-4 0  9994
2 39444  97.5574  12.5952 0059487  96.1571 264.6425 14.82037413329320
UWE-3
1 39446U 13066AG  20002.99272757  .00000171  00000-0  29125-4 0  9996
2 39446  97.5880   2.0397 0071054 132.1564 228.5714 14.78472449328568
SPROUT
1 39770U 14029E   20003.34965803  .00000612  00000-0  73517-4 0  9991
2 39770  97.8909 110.4701 0009335 147.5180 212.6599 14.87561841304365
UNISAT 6
1 40012U 14033C   20002.75930022  .00000119  00000-0  25102-4 0  9995
2 40012  97.7296 225.5367 0058276 177.3099 182.8435 14.74051128297869
DUCHIFAT 1
1 40021U 14033M   20002.76153140  .00000333  00000-0  39744-4 0  9999
2 40021  97.9339 293.0865 0014075 114.1467 246.1224 14.90776372301059
QB50P1
1 40025U 14033R   20002.87558981 +.00000206 +00000-0 +27840-4 0  9990
2 40025 097.9112 287.2589 0013508 123.6804 236.5703 14.89046802300308
CHUBUSAT 1
1 40300U 14070C   20003.30939061  .00000433  00000-0  21667-4 0  9991
2 40300  97.3077  77.2746 0021341  77.9470 324.3348 15.22308732286231
NUDT-PHONESAT
1 40900U 15049B   20003.52259515  .00001529  00000-0  67039-4 0  9997
2 40900  97.4345  15.9571 0011754 200.7809 310.5758 15.23459861237925
ZDPS 2A
1 40901U 15049C   20003.57683332  .00000449  00000-0  25388-4 0  9992
2 40901  97.4614  11.5708 0012045 227.2932 254.0545 15.18005172237409
ZDPS 2B
1 40902U 15049D   20003.49417047  .00000840  00000-0  44706-4 0  9992
2 40902  97.4582   8.8341 0012031 224.6060 286.6282 15.17922269237362
XW-2A
1 40903U 15049E   20003.40539146  .00001259  00000-0  30982-4 0  9995
2 40903  97.3128  52.0639 0014314 139.6579 346.9853 15.42479684240875
KAITUO 1A
1 40904U 15049F   20003.49168164  .00000493  00000-0  29437-4 0  9995
2 40904  97.4721   7.1746 0013074 236.4832 274.8983 15.15555887237101
OBJECT G
1 40905U 15049G   20003.45202890  .00000210  00000-0  15015-4 0  9991
2 40905  97.4784   4.4876 0014167 232.3317 283.4301 15.14428562236952
XW-2C
1 40906U 15049H   20003.45217238  .00000274  00000-0  17779-4 0  9993
2 40906  97.4726   7.3171 0013436 226.2546 292.0148 15.15879284237108
XW-2D
1 40907U 15049J   20003.46923429  .00000686  00000-0  39035-4 0  9997
2 40907  97.4713   7.0209 0012803 222.8019 290.7185 15.16090347237122
LILACSAT 2
1 40908U 15049K   20003.49488928  .00000171  00000-0  13059-4 0  9998
2 40908  97.4852   5.6276 0014436 233.2362 278.2447 15.13924870236884
XW-2F
1 40910U 15049M   20003.50095946  .00000665  00000-0  36360-4 0  9995
2 40910  97.4654   9.3658 0013601 213.5282 297.7537 15.17626281237164
XW-2B
1 40911U 15049N   20003.43614200  .00000274  00000-0  17721-4 0  9994
2 40911  97.4725   7.6692 0012731 224.4556 239.7644 15.16015491237014
KAITUO 1B
1 40912U 15049P   20003.49122517  .00000884  00000-0  44213-4 0  9999
2 40912  97.4499  13.3057 0014215 192.5908 320.7944 15.19980297237503
TIANWANG 1C (TW-1C)
1 40926U 15051B   20003.41838781  .00011219  00000-0  13938-3 0  9999
2 40926  97.1096  54.5800 0007078   6.7883 121.7011 15.60126818241098
TIANWANG 1B (TW-1B)
1 40927U 15051C   20003.40290560  .00009845  00000-0  13161-3 0  9996
2 40927  97.1131  53.5058 0007592  19.5581 107.4384 15.58208714240918
TIANWANG 1A (TW-1A)
1 40928U 15051D   20003.36578997  .00001975  00000-0  48563-4 0  9996
2 40928  97.1270  35.1684 0012643  73.5412  53.0973 15.41747774239778
LAPAN A2
1 40931U 15052B   20002.58753715  .00000638  00000-0 -24146-6 0  9996
2 40931   5.9928  85.5229 0013528  76.7647 283.7111 14.76622055230555
